Location: *
(55.6049°S, 142.1985°W)
Time: 16:02:10
(UTC+00:00)

Cosmos 1092 Rocket - Pass Details

Date: 12 May 2021
Orbit: 953 x 996 km, 83.0° (Epoch: 18 June)

Event Time Altitude Azimuth Distance (km) Brightness Sun altitude
Rises 14:03:04 0° 192° (SSW) 3,739 7.0 -26.6°
Reaches altitude 10° 14:05:38 10° 189° (S) 2,790 6.3 -26.2°
Maximum altitude 14:12:03 68° 105° (ESE) 1,083 4.3 -25.3°
Drops below altitude 10° 14:18:25 10° 22° (NNE) 2,775 6.6 -24.4°
Sets 14:20:58 0° 19° (NNE) 3,718 7.2 -24.0°
